EN

Hourly Weather Dziekanowice

Today, 30 October, Friday

Time Temperature Precipitation Wind Pressure Humidity
00:00 +7°C° 0 mm 3 mps 740 mmHg 84%
01:00 +5°C° 0 mm 4 mps 740 mmHg 85%
02:00 +5°C° 0 mm 3 mps 740 mmHg 85%
03:00 +5°C° 0 mm 3 mps 740 mmHg 86%
04:00 +4°C° 0 mm 3 mps 740 mmHg 86%
05:00 +4°C° 0 mm 3 mps 741 mmHg 86%
06:00 +4°C° 0 mm 3 mps 741 mmHg 87%
07:00 +4°C° 0 mm 3 mps 741 mmHg 87%
08:00 +5°C° 0 mm 3 mps 741 mmHg 81%
09:00 +8°C° 0 mm 3 mps 741 mmHg 75%
10:00 +9°C° 0 mm 3 mps 741 mmHg 69%
11:00 +10°C° 0 mm 3 mps 741 mmHg 68%
12:00 +10°C° 0 mm 3 mps 740 mmHg 67%
13:00 +10°C° 0 mm 3 mps 740 mmHg 65%
14:00 +10°C° 0.4 mm 3 mps 740 mmHg 73%
15:00 +9°C° 0.4 mm 2 mps 739 mmHg 81%
16:00 +8°C° 0.4 mm 2 mps 739 mmHg 88%
17:00 +8°C° 0.6 mm 2 mps 739 mmHg 90%
18:00 +8°C° 0.6 mm 2 mps 739 mmHg 91%
19:00 +8°C° 0.6 mm 2 mps 738 mmHg 92%
20:00 +9°C° 0.8 mm 3 mps 738 mmHg 93%
21:00 +8°C° 0.8 mm 4 mps 738 mmHg 94%
22:00 +10°C° 0.8 mm 4 mps 738 mmHg 94%
23:00 +9°C° 0.7 mm 5 mps 738 mmHg 94%

Tomorrow, 31 October, Saturday

Time Temperature Precipitation Wind Pressure Humidity
00:00 +10°C° 0.7 mm 5 mps 738 mmHg 94%
01:00 +10°C° 0.7 mm 5 mps 738 mmHg 94%
02:00 +11°C° 0.6 mm 4 mps 738 mmHg 95%
03:00 +10°C° 0.6 mm 4 mps 739 mmHg 95%
04:00 +10°C° 0.6 mm 3 mps 739 mmHg 95%
05:00 +9°C° 0.2 mm 3 mps 739 mmHg 94%
06:00 +9°C° 0.2 mm 3 mps 740 mmHg 94%
07:00 +9°C° 0.2 mm 3 mps 741 mmHg 93%
08:00 +9°C° 0 mm 2 mps 741 mmHg 88%
09:00 +9°C° 0 mm 2 mps 742 mmHg 82%
10:00 +10°C° 0 mm 2 mps 742 mmHg 76%
11:00 +10°C° 0 mm 2 mps 742 mmHg 72%
12:00 +12°C° 0 mm 1 mps 742 mmHg 67%
13:00 +12°C° 0 mm 1 mps 743 mmHg 62%
14:00 +12°C° 0 mm 1 mps 743 mmHg 66%
15:00 +11°C° 0 mm 1 mps 743 mmHg 69%
16:00 +9°C° 0 mm 0 mps 743 mmHg 72%
17:00 +8°C° 0 mm 0 mps 743 mmHg 75%
18:00 +8°C° 0 mm 0 mps 743 mmHg 78%
19:00 +7°C° 0 mm 0 mps 743 mmHg 81%
20:00 +7°C° 0 mm 0 mps 743 mmHg 83%
21:00 +6°C° 0 mm 0 mps 743 mmHg 84%
22:00 +7°C° 0 mm 1 mps 743 mmHg 86%
23:00 +7°C° 0 mm 1 mps 743 mmHg 87%

Day after tomorrow, 1 November, Sunday

Time Temperature Precipitation Wind Pressure Humidity
00:00 +6°C° 0 mm 1 mps 743 mmHg 87%
01:00 +6°C° 0 mm 1 mps 743 mmHg 88%
02:00 +6°C° 0 mm 1 mps 743 mmHg 89%
03:00 +6°C° 0 mm 1 mps 743 mmHg 89%
04:00 +5°C° 0 mm 1 mps 743 mmHg 89%
05:00 +5°C° 0 mm 1 mps 743 mmHg 89%
06:00 +5°C° 0 mm 1 mps 743 mmHg 89%
07:00 +5°C° 0 mm 1 mps 743 mmHg 88%
08:00 +7°C° 0 mm 1 mps 742 mmHg 81%
09:00 +8°C° 0 mm 1 mps 742 mmHg 74%
10:00 +10°C° 0 mm 1 mps 742 mmHg 66%
11:00 +11°C° 0 mm 1 mps 742 mmHg 63%
12:00 +12°C° 0 mm 1 mps 741 mmHg 59%
13:00 +13°C° 0 mm 1 mps 741 mmHg 55%
14:00 +12°C° 0 mm 1 mps 741 mmHg 60%
15:00 +11°C° 0 mm 1 mps 740 mmHg 64%
16:00 +10°C° 0 mm 1 mps 740 mmHg 69%
17:00 +10°C° 0 mm 1 mps 740 mmHg 71%
18:00 +10°C° 0 mm 1 mps 740 mmHg 74%
19:00 +9°C° 0 mm 1 mps 740 mmHg 76%
20:00 +9°C° 0 mm 1 mps 740 mmHg 78%
21:00 +9°C° 0 mm 1 mps 739 mmHg 81%
22:00 +9°C° 0 mm 1 mps 739 mmHg 83%
23:00 +9°C° 0 mm 2 mps 739 mmHg 84%

2 November, Monday

Time Temperature Precipitation Wind Pressure Humidity
00:00 +9°C° 0 mm 2 mps 739 mmHg 85%
01:00 +9°C° 0 mm 2 mps 739 mmHg 86%
02:00 +9°C° 0.3 mm 2 mps 739 mmHg 87%
03:00 +9°C° 0.3 mm 2 mps 739 mmHg 89%
04:00 +9°C° 0.3 mm 2 mps 739 mmHg 91%
05:00 +9°C° 0 mm 2 mps 739 mmHg 91%
06:00 +9°C° 0 mm 2 mps 739 mmHg 90%
07:00 +10°C° 0 mm 2 mps 739 mmHg 90%
08:00 +12°C° 0 mm 2 mps 739 mmHg 86%
09:00 +12°C° 0 mm 3 mps 739 mmHg 83%
10:00 +13°C° 0 mm 3 mps 739 mmHg 79%
11:00 +13°C° 0 mm 3 mps 739 mmHg 80%
12:00 +15°C° 0 mm 2 mps 739 mmHg 81%
13:00 +15°C° 0 mm 2 mps 739 mmHg 82%
14:00 +14°C° 0 mm 2 mps 739 mmHg 84%
15:00 +14°C° 0 mm 2 mps 739 mmHg 86%
16:00 +14°C° 0 mm 2 mps 739 mmHg 88%
17:00 +13°C° 0 mm 2 mps 739 mmHg 89%
18:00 +13°C° 0 mm 2 mps 739 mmHg 89%
19:00 +13°C° 0 mm 2 mps 739 mmHg 90%
20:00 +13°C° 0 mm 2 mps 739 mmHg 90%
21:00 +13°C° 0 mm 2 mps 739 mmHg 90%
22:00 +13°C° 0 mm 2 mps 739 mmHg 90%
23:00 +13°C° 0 mm 2 mps 739 mmHg 90%

3 November, Tuesday

Time Temperature Precipitation Wind Pressure Humidity
00:00 +13°C° 0 mm 2 mps 739 mmHg 90%
01:00 +13°C° 0 mm 2 mps 739 mmHg 90%
02:00 +13°C° 0 mm 2 mps 739 mmHg 91%
03:00 +13°C° 0 mm 2 mps 739 mmHg 91%
04:00 +12°C° 0 mm 2 mps 739 mmHg 92%
05:00 +13°C° 0 mm 2 mps 739 mmHg 91%
06:00 +13°C° 0 mm 2 mps 740 mmHg 91%
07:00 +13°C° 0 mm 2 mps 740 mmHg 90%
08:00 +13°C° 0 mm 3 mps 740 mmHg 87%
09:00 +14°C° 0 mm 3 mps 741 mmHg 83%
10:00 +16°C° 0 mm 3 mps 741 mmHg 80%
11:00 +16°C° 0 mm 3 mps 741 mmHg 79%
12:00 +17°C° 0 mm 3 mps 741 mmHg 78%
13:00 +17°C° 0 mm 3 mps 742 mmHg 77%
14:00 +16°C° 0 mm 3 mps 742 mmHg 81%
15:00 +14°C° 0 mm 3 mps 742 mmHg 85%
16:00 +14°C° 0 mm 2 mps 742 mmHg 89%
17:00 +14°C° 0.1 mm 2 mps 742 mmHg 85%
18:00 +12°C° 0.1 mm 3 mps 743 mmHg 82%
19:00 +12°C° 0.1 mm 3 mps 743 mmHg 79%
20:00 +13°C° 0.2 mm 2 mps 743 mmHg 78%
21:00 +12°C° 0.2 mm 1 mps 743 mmHg 78%
22:00 +12°C° 0.2 mm 1 mps 744 mmHg 78%
23:00 +12°C° 0.1 mm 1 mps 743 mmHg 78%

4 November, Wednesday

Time Temperature Precipitation Wind Pressure Humidity
00:00 +12°C° 0.1 mm 1 mps 743 mmHg 78%
01:00 +11°C° 0.1 mm 1 mps 743 mmHg 79%
02:00 +10°C° 0.4 mm 2 mps 743 mmHg 82%
03:00 +10°C° 0.4 mm 2 mps 743 mmHg 85%
04:00 +10°C° 0.4 mm 2 mps 743 mmHg 88%
05:00 +10°C° 1.4 mm 3 mps 743 mmHg 90%
06:00 +9°C° 1.4 mm 3 mps 744 mmHg 92%
07:00 +9°C° 1.4 mm 3 mps 744 mmHg 94%
08:00 +9°C° 1 mm 3 mps 744 mmHg 94%
09:00 +9°C° 1 mm 3 mps 744 mmHg 94%
10:00 +9°C° 1 mm 3 mps 744 mmHg 93%
11:00 +9°C° 0.9 mm 3 mps 744 mmHg 93%
12:00 +9°C° 0.9 mm 3 mps 745 mmHg 93%
13:00 +8°C° 0.9 mm 4 mps 745 mmHg 93%
14:00 +8°C° 0.8 mm 4 mps 745 mmHg 92%
15:00 +7°C° 0.8 mm 4 mps 745 mmHg 92%
16:00 +7°C° 0.8 mm 4 mps 745 mmHg 92%
17:00 +7°C° 0.6 mm 4 mps 746 mmHg 91%
18:00 +8°C° 0.6 mm 3 mps 746 mmHg 91%
19:00 +7°C° 0.6 mm 3 mps 747 mmHg 91%
20:00 +7°C° 0.2 mm 3 mps 747 mmHg 91%
21:00 +7°C° 0.2 mm 3 mps 748 mmHg 91%
22:00 +7°C° 0.2 mm 2 mps 748 mmHg 91%
23:00 +7°C° 0.2 mm 2 mps 748 mmHg 91%
Show more